CW9451 Weather Reports


time (UTC)temp
C
wind
direction
speed
KPH
gust
KPH
rain 1hr
cm
rain 24hr
cm
rain mn
cm
humidity
%
barometer
mb
20190820215905 16 0.0 0.0 0.00 0.00 0.00 77 1027.0
20190820214904 17 0.0 0.0 0.00 0.00 0.00 76 1026.8
20190820213905 17 0.0 0.0 0.00 0.00 0.00 76 1026.7
20190820204905 17 0.0 0.0 0.00 0.00 0.00 75 1026.1
20190820203904 17 0.0 0.0 0.00 0.00 0.00 74 1026.0
20190820202905 17 0.0 0.0 0.00 0.00 0.00 75 1026.0
20190820201905 17 0.0 0.0 0.00 0.00 0.00 74 1025.8
20190820195904 18 0.0 0.0 0.00 0.00 0.00 73 1025.9
20190820191905 18 0.0 0.0 0.00 0.00 0.00 71 1025.4
20190820185905 18 0.0 0.0 0.00 0.00 0.00 72 1025.3
20190820184904 19 0.0 0.0 0.00 0.00 0.00 71 1025.1
20190820183905 19 0.0 0.0 0.00 0.00 0.00 72 1024.9
20190820181905 20 0.0 0.0 0.00 0.00 0.00 70 1024.8
20190820180905 20 0.0 0.0 0.00 0.00 0.00 70 1024.7
20190820175904 20 0.0 0.0 0.00 0.00 0.00 70 1024.7
20190820173905 20 0.0 0.0 0.00 0.00 0.00 69 1024.4
20190820171904 20 0.0 0.0 0.00 0.00 0.00 65 1024.1
20190820164905 21 0.0 0.0 0.00 0.00 0.00 63 1024.1
20190820163905 21 0.0 0.0 0.00 0.00 0.00 62 1024.1
20190820162904 21 0.0 0.0 0.00 0.00 0.00 59 1024.2
20190820154905 20 0.0 0.0 0.00 0.00 0.00 55 1024.2
20190820150904 21 0.0 0.0 0.00 0.00 0.00 57 1023.7
20190820145905 21 0.0 0.0 0.00 0.00 0.00 57 1023.6
20190820141904 21 0.0 0.0 0.00 0.00 0.00 57 1023.8
20190820140904 21 0.0 0.0 0.00 0.00 0.00 57 1023.7
20190820135905 21 0.0 0.0 0.00 0.00 0.00 56 1023.7
20190820133906 21 0.0 0.0 0.00 0.00 0.00 56 1023.6
20190820132905 21 0.0 0.0 0.00 0.00 0.00 58 1023.5
20190820131905 21 0.0 0.0 0.00 0.00 0.00 57 1023.6
20190820121905 21 0.0 0.0 0.00 0.00 0.00 55 1023.5
20190820120904 21 0.0 0.0 0.00 0.00 0.00 53 1023.6
20190820115905 21 0.0 0.0 0.00 0.00 0.00 52 1023.6
20190820114905 21 0.0 0.0 0.00 0.00 0.00 51 1023.6
20190820113905 21 0.0 0.0 0.00 0.00 0.00 51 1023.6
20190820111904 21 0.0 0.0 0.00 0.00 0.00 49 1023.4
20190820104904 22 0.0 0.0 0.00 0.00 0.00 54 1023.3
20190820103905 22 0.0 0.0 0.00 0.00 0.00 55 1023.3
20190820101905 22 0.0 0.0 0.00 0.00 0.00 56 1023.4
20190820095904 22 0.0 0.0 0.00 0.00 0.00 57 1023.2
20190820094905 21 0.0 0.0 0.00 0.00 0.00 59 1023.3
20190820092904 21 0.0 0.0 0.00 0.00 0.00 62 1023.5
20190820091905 21 0.0 0.0 0.00 0.00 0.00 65 1023.5
20190820090905 21 0.0 0.0 0.00 0.00 0.00 65 1023.5
20190820085906 21 0.0 0.0 0.00 0.00 0.00 67 1023.6
20190820084905 20 0.0 0.0 0.00 0.00 0.00 69 1023.6
20190820080905 19 0.0 0.0 0.00 0.00 0.00 75 1023.4
20190820074903 18 0.0 0.0 0.00 0.00 0.00 77 1023.6
20190820073904 18 0.0 0.0 0.00 0.00 0.00 80 1023.5
20190820072906 17 0.0 0.0 0.00 0.00 0.00 84 1023.6
20190820071905 17 0.0 0.0 0.00 0.00 0.00 86 1023.5
20190820070905 16 0.0 0.0 0.00 0.00 0.00 86 1023.5
20190820063905 16 0.0 0.0 0.00 0.00 0.00 85 1023.5
20190820060905 15 0.0 0.0 0.00 0.00 0.00 84 1023.4
20190820052905 15 0.0 0.0 0.00 0.00 0.00 83 1023.2
20190820051905 15 0.0 0.0 0.00 0.00 0.00 82 1023.1
20190820045904 15 0.0 0.0 0.00 0.00 0.00 82 1022.9
20190820043904 15 0.0 0.0 0.00 0.00 0.00 82 1022.8
20190820042904 15 0.0 0.0 0.00 0.00 0.00 81 1022.6
20190820041904 15 0.0 0.0 0.00 0.00 0.00 81 1022.6
20190820040905 15 0.0 0.0 0.00 0.00 0.00 81 1022.5
20190820035906 15 0.0 0.0 0.00 0.00 0.00 81 1022.4
20190820030904 15 0.0 0.0 0.00 0.00 0.00 80 1022.4
20190820025904 15 0.0 0.0 0.00 0.00 0.00 80 1022.3
20190820024904 15 0.0 0.0 0.00 0.00 0.00 80 1022.2
20190820023904 15 0.0 0.0 0.00 0.00 0.00 80 1022.2
20190820022905 16 0.0 0.0 0.00 0.00 0.00 80 1022.1
20190820020904 16 0.0 0.0 0.00 0.00 0.00 81 1022.0
20190820015905 16 0.0 0.0 0.00 0.00 0.00 81 1021.9
20190820014904 16 0.0 0.0 0.00 0.00 0.00 81 1022.0
20190820013905 16 0.0 0.0 0.00 0.00 0.00 80 1022.0
20190820012904 16 0.0 0.0 0.00 0.00 0.00 80 1022.0
20190820011905 16 0.0 0.0 0.00 0.00 0.00 79 1022.0
20190820010905 16 0.0 0.0 0.00 0.00 0.00 79 1021.9
20190820005905 16 0.0 0.0 0.00 0.00 0.00 79 1021.8
20190820004906 16 0.0 0.0 0.00 0.00 0.00 79 1021.9
20190820001905 16 0.0 0.0 0.00 0.00 0.00 79 1021.7
20190819235904 17 0.0 0.0 0.00 0.00 0.00 79 1021.5
20190819234904 17 0.0 0.0 0.00 0.00 0.00 79 1021.5
20190819233905 17 0.0 0.0 0.00 0.00 0.00 79 1021.5
20190819231905 17 0.0 0.0 0.00 0.00 0.00 78 1021.5
20190819225904 17 0.0 0.0 0.00 0.00 0.00 77 1021.3
20190819224905 17 0.0 0.0 0.00 0.00 0.00 78 1021.2
20190819223905 17 0.0 0.0 0.00 0.00 0.00 77 1021.0